Preview of NWS' New Version of Forecast
This preview is not operational and should not be used for support decisions.

Regional Weather Roundup (RWR)

Issued by National Weather Service (NWS)

                            
000
ASUS44 KMEG 190610
RWRTN 
TENNESSEE HOURLY STATE WEATHER ROUNDUP
NATIONAL WEATHER SERVICE MEMPHIS TN
100 AM CDT FRI APR 19 2019

TNZ002-004-019-021-049-052-054-088>092-190700-
WEST TENNESSEE
  
CITY           SKY/WX    TMP DP  RH WIND       PRES   REMARKS
MEMPHIS INTL   LGT RAIN  49  47  93 N17       29.68R FOG              
NWS MEMPHIS      N/A     48 N/A N/A MISG        N/A                   
JACKSON        CLOUDY    50  48  93 N16       29.62R                  
DYERSBURG      LGT RAIN  48  46  93 N15G21    29.66S                  
SOMERVILLE     CLOUDY    50  48  93 NW14G22   29.63R FOG              
COVINGTON      CLOUDY    48  48 100 N16       29.66R FOG              
UNION CITY     CLOUDY    48  48 100 N17G24    29.64R FOG              
BOLIVAR        CLOUDY    52  50  93 NW8G17    29.60S FOG              
PARIS          CLOUDY    48  48 100 N8G17     29.61R FOG              
HUNTINGDON     CLOUDY    50  48  93 N6G14     29.60R FOG              
LEXINGTON      CLOUDY    59  57  94 SW3       29.56F FOG              
SELMER         CLOUDY    57  57 100 SW3       29.56F FOG              
SAVANNAH       CLOUDY    59  59 100 CALM      29.55F FOG              
$$

TNZ008-025-027-028-033-062-065-066-190700-
NORTH MIDDLE TENNESSEE
  
CITY           SKY/WX    TMP DP  RH WIND       PRES   REMARKS
NASHVILLE      CLOUDY    60  57  89 S5        29.56F                  
DICKSON        CLOUDY    57  57 100 S7        29.56F                  
PORTLAND       CLOUDY    59  59 100 SE7       29.55F                  
CLARKSVILLE    HVY RAIN  54  51  90 NW15      29.57R FOG              
LEBANON        CLOUDY    59  59 100 CALM      29.55F                  
SMYRNA         CLOUDY    59  58  96 S6        29.57F                  
MURFREESBORO   CLOUDY    59  59 100 S7        29.56F                  
COOKEVILLE     CLOUDY    63  61  94 S10       29.58R                  
LIVINGSTON     CLOUDY    63  59  88 S8G15     29.56F                  
GALLATIN       CLOUDY    61  59  94 CALM      29.59F                  
CROSSVILLE     LGT RAIN  60  57  89 S13G22    29.62F                  
ROCKWOOD       MOCLDY    61  59  94 S17G30    29.67F FOG              
$$

TNZ061-075-076-078-094-096-097-190700-
SOUTH MIDDLE TENNESSEE
  
CITY           SKY/WX    TMP DP  RH WIND       PRES   REMARKS
LAWRENCEBURG   CLOUDY    57  55  94 E5        29.58F FOG              
LEWISBURG      CLOUDY    57  57 100 SE3       29.58F FOG              
FAYETTEVILLE   CLOUDY    57  57 100 SE6       29.58F FOG              
TULLAHOMA      CLOUDY    57  55  94 SE12G20   29.59F                  
WINCHESTER     CLOUDY    59  57  94 E6        29.61F                  
MCMINNVILLE    CLOUDY    59  57  94 CALM      29.59F                  
COLUMBIA       CLOUDY    57  57 100 S3        29.58S FOG              
SHELBYVILLE    MOCLDY    57  57 100 S6        29.59F FOG              
$$

TNZ017-018-042-046-047-190700-
NORTHEAST TENNESSEE
  
CITY           SKY/WX    TMP DP  RH WIND       PRES   REMARKS
TRI CITIES     MOCLDY    70  53  54 S8        29.73F                  
ELIZABETHTON   CLOUDY    70  54  56 NW6       29.72F                  
GREENEVILLE    MOCLDY    70  55  60 S10G21    29.71R                  
$$

TNZ012-013-036-069-073-074-190700-
CENTRAL EAST TENNESSEE
  
CITY           SKY/WX    TMP DP  RH WIND       PRES   REMARKS
KNOXVILLE      RAIN      63  59  87 S21G37    29.69R                  
OAK RIDGE      LGT RAIN  64  61  90 VRB3      29.70                   
GATLINBURG     MOCLDY    75  50  41 SW16G31   29.68R                  
MORRISTOWN     CLOUDY    72  52  49 S16G23    29.65F                  
JACKSBORO      CLOUDY    63  61  94 SW13      29.70R FOG              
$$

TNZ083-085-099-190700-
SOUTHEAST TENNESSEE
  
CITY           SKY/WX    TMP DP  RH WIND       PRES   REMARKS
CHATTANOOGA    LGT RAIN  64  61  90 SE10      29.64F                  
DAYTON         MOCLDY    64  63  94 S9        29.63F                  
$$

SKY/WX REPORTED AS FAIR MEANS FEW OR NO CLOUDS BELOW
12 THOUSAND FEET.